Find Kuiper-00213

NORAD ID: 67777 Int'l Des: 2026-030 Owner: KUIP Country: US Constellation: kuiper operational
LEOCIRCULAR

リアルタイム位置

3D地球を読み込み中...

Kuiper-00213について

説明を読み込み中...

次回通過

Passes for default location (London). Set your location on the main map for personalized predictions.

高度履歴

Loading altitude history...

軌道要素

1 67777U 26030P 26122.16670139 -.00028601 00000-0 -37855-2 0 9990
2 67777 51.8959 329.2373 0003547 283.2119 199.4241 14.79404901 3706
Epoch: May 2, 2026 • Age: 3 hours

現在のステータス

高度 639.8 km
速度 7.54 km/s
衛星直下点 52.01°N, 89.28°E
打ち上げ日 Feb 12, 2026
運用期間 0.2 years
タイプ internet

技術仕様

分類 Payload
質量 490.00 kg
乾燥質量 490.00 kg
総質量 490.00 kg
長さ 1.80 m
直径 0.70 m
スパン 5.00 m
形状 Box + 2 pan
製造者 KUIP
バスタイプ Kuiper
フェーズステータス In Orbit
所有者/国 KUIP/US

Most Searched